Regional Weather Roundup
Issued by NWS

Home | Current Version | Previous Version | Graphics & Text | Print | Product List | Glossary On
Versions: 1 2 3 4 5 6 7 8 9 10 11 12 13 14 15 16 17 18 19 20 21 22 23 24 25 26 27 28 29 30 31 32 33 34 35 36 37 38 39 40 41 42 43 44 45 46 47 48 49 50
000
ASUS43 KFSD 211402
RWRSD

WEATHER ROUNDUP FOR SOUTH DAKOTA
NATIONAL WEATHER SERVICE SIOUX FALLS SD
900 AM CDT SAT APR 21 2018

NOTE: "FAIR" INDICATES FEW OR NO CLOUDS BELOW 12,000 FEET WITH NO
SIGNIFICANT WEATHER AND/OR OBSTRUCTIONS TO VISIBILITY.


SDZ001>005-009-010-012>017-211500-
NORTHWEST AND NORTH CENTRAL SOUTH DAKOTA

CITY           SKY/WX    TMP DP  RH WIND       PRES   REMARKS
BUFFALO          N/A     41  36  82 S14       30.11S
FAITH            N/A     41  40  96 SE15      30.25R
MOBRIDGE       CLOUDY    44  40  85 S6        30.28S
$$

SDZ012>016-024>037-041>051-057-063-072>074-211500-
SOUTHWEST AND SOUTH CENTRAL SOUTH DAKOTA

CITY           SKY/WX    TMP DP  RH WIND       PRES   REMARKS
RAPID CTY ARPT CLOUDY    39  37  92 SE9       30.23R
PIERRE         CLOUDY    43  41  93 E5        30.31S
CUSTER         FOG       32  30  92 SW5       30.17S VSB 1/4 WCI  27
ELLSWORTH AFB  PTSUNNY  N/A N/A N/A S14       30.23R
PHILIP         CLOUDY    40  40 100 E6        30.28S
PINE RIDGE     CLOUDY    39  36  89 SE6       30.23S
SPEARFISH      FAIR      41  34  75 E3        30.18R
WINNER         CLOUDY    41  36  82 S3        30.32S
$$

SDZ004>011-016>023-039-040-211500-
NORTHEAST SOUTH DAKOTA

CITY           SKY/WX    TMP DP  RH WIND       PRES   REMARKS
ABERDEEN       PTSUNNY   45  38  76 S6        30.36F
WATERTOWN      CLOUDY    39  33  79 S5        30.36S
BROOKINGS      CLOUDY    40  34  79 CALM      30.38R
SISSETON         N/A     43  37  79 S7        30.37S
$$

SDZ017-020-022-023-036>040-048>070-211500-
SOUTHEAST SOUTH DAKOTA

CITY           SKY/WX    TMP DP  RH WIND       PRES   REMARKS
SIOUX FALLS    LGT RAIN  40  30  67 SE3       30.37R
HURON          CLOUDY    40  35  83 CALM      30.36R
CHAMBERLAIN    DRIZZLE   40  40 100 SE5       30.33F
MITCHELL       CLOUDY    39  33  79 E3        30.36F
YANKTON        CLOUDY    41  34  76 NE9       30.35S
$$

ABBREVIATIONS USED IN REMARKS
   TC - TEMPERATURE IN CELSIUS
  WCI - WIND CHILL INDEX
   HX - HEAT INDEX
  VSB - VISIBILITY




USA.gov is the U.S. government's official web portal to all federal, state and local government web resources and services.